Tracking 25995 objects as of 20-Aug-2022
HD Live streaming from Space Station
objects crossing your sky now

PEGASUS R/B

Track PEGASUS R/B now!
10-day predictions


NORAD ID: 22491
Int'l Code: 1993-009C
Perigee: 687.1 km
Apogee: 754.3 km
Inclination: 25.0 °
Period: 99.1 minutes
Semi major axis: 7091 km
RCS: 0.1679 m2 (medium)
Launch date: February 9, 1993
Source: United States (US)
Launch site: AIR FORCE EASTERN TEST RANGE (AFETR)

Note: This is a ROCKET BODY
aabbcc
Your satellite tracking list
Your tracking list is empty




NASA's NSSDC Master Catalog

Two Line Element Set (TLE):
1 22491U 93009C   22230.62898789  .00000601  00000-0  92788-4 0  9990
2 22491  24.9761 220.5134 0047361 194.3194 165.5973 14.53697609565617
Source of the keplerian elements: AFSPC